Location: Unspecified
(34.4950°S, 58.5160°W)
Time: 03:57:05
(UTC+00:00)

YAOGAN 1 - Pass Details

Date: 04 December 2021
Orbit: 618 x 620 km, 97.9° (Epoch: 23 January)

Event Time Altitude Azimuth Distance (km) Brightness Sun altitude
Rises 23:36:27 0° 170° (S) 2,928 6.4 -8.2°
Reaches altitude 10° 23:38:39 10° 171° (S) 2,014 5.5 -8.5°
Maximum altitude 23:43:03 78° 257° (WSW) 644 2.8 -9.3°
Drops below altitude 10° 23:47:22 10° 342° (NNW) 1,987 5.0 -10.0°
Sets 23:49:32 0° 343° (NNW) 2,884 5.8 -10.4°
